アトラス彗星

C/2024 T5 ( ATLAS )

English version
Home page
Updated on March 23, 2025

---------------------------------------------------------------------

・ プロフィール

発見日 2024年10月2日
発見光度 19.2等
発見者 Asteroid Terrestrial-Impact Last Alert System (ATLAS) search program

・ 軌道要素

Epoch 2025 May 5.0 TT = JDT 2460800.5
T 2027 May 6.33962 TT                                   Pike
q   3.8422827            (2000.0)            P               Q
z  -0.0005093      Peri.  352.43287     -0.10476160     -0.61893376
 +/-0.0000336      Node   100.68184     +0.94889478     -0.29651622
e   1.0019569      Incl.   52.38708     +0.29769735     +0.72732326
From 207 observations 2024 Oct. 2-2025 Feb. 2, mean residual 0".4.

・ 星図

・ 光度変化

        m1 = 4.5 + 5 logΔ + 10.0 log r

---------------------------------------------------------------------

軌道要素はM.P.E.C. 2025-C143に掲載されたものです。
星図はステラナビゲータ Ver.11 (アストロアーツ) で作成したものです。
光度グラフはComet for Windowsで作成したものです。

---------------------------------------------------------------------

Copyright(C) Seiichi Yoshida (comet@aerith.net). All rights reserved.